SCP
0 0 0 0 0 0 0 0 0 0 -0 -0 -0 -0 -0 0 0 0 0 0 0 0 0 0 0 0 0 0 0 0 0 0 0 0 0 0 0 0 0 0 0 0 0 0
0 0 0 0 0 0 0 0 -0 0 -0 -0 -0 -0 0 0 0 0 0 0 0 0 0 0 0 0 0 0 0 0 0 0 0 0 0 0 0 0 0 0 0 0 0 0
0 0 0 0 0 0 0 -0 -0 -0 -0 -0 -0 -0 0 0 0 0 0 0 0 0 0 0 0 0 0 0 0 0 0 0 0 0 0 0 0 0 0 0 0 0 0 0
0 0 0 0 0 0 0 -0 -0 -0 -0 0 0 0 0 0 0 0 0 0 0 0 0 0 0 0 0 0 0 0 0 0 0 0 0 0 0 0 0 0 0 0 0 0
0 0 0 0 0 0 0 0 -0 -0 -0 0 0 0 0 0 0 0 0 0 0 0 0 0 0 0 0 0 0 0 0 0 0 0 0 0 0 0 0 0 0 0 0 0
0 0 0 0 0 0 0 0 0 0 0 0 0 0 0 0 0 0 0 0 0 0 0 0 0 0 0 0 0 0 0 0 0 0 0 0 0 0 0 0 0 0 0 0
0 0 0 0 0 0 0 0 0 0 0 0 0 0 0 0 0 0 0 0 0 0 0 0 0 0 0 0 0 0 0 0 0 0 0 0 0 0 0 0 0 0 0 0
0 0 0 0 0 0 0 0 0 0 0 0 0 0 0 0 0 0 0 0 0 0 0 0 0 0 0 0 0 0 0 0 0 0 0 0 0 0 0 0 0 0 0 0
0 0 0 0 -0 0 0 0 0 0 0 0 0 0 0 0 0 0 0 0 0 0 0 0 0 0 0 0 0 0 0 0 0 0 0 0 0 0 0 0 0 0 0 0
0 0 0 0 -0 0 0 0 0 0 0 0 0 0 0 0 0 -0 0 0 0 0 0 0 0 0 0 0 0 0 0 0 0 0 0 0 0 0 0 0 0 0 0 0
0 0 0 -0 -0 -0 0 0 0 0 0 0 0 0 0 0 0 -0 0 0 0 0 0 0 0 0 0 0 0 0 0 0 0 0 0 0 0 0 0 0 0 0 0 0
0 0 -0 -0 -0 0 0 0 0 0 0 0 0 0 0 0 0 0 0 0 0 0 0 0 0 0 0 0 0 0 0 0 0 0 0 0 0 0 0 0 0 0 0 0
0 0 0 0 0 0 0 0 0 0 0 0 0 0 0 0 0 0 0 0 0 0 0 0 0 0 0 0 0 0 0 0 0 0 0 0 0 0 0 0 0 0 0 0
0 0 0 0 0 0 0 0 0 0 0 0 0 0 0 0 0 0 0 0 0 0 0 0 0 0 0 0 0 0 0 0 0 0 0 0 0 0 0 0 0 0 0 0
0 0 0 0 0 0 0 0 0 0 0 0 0 0 0 0 0 0 0 0 0 0 0 0 0 0 0 0 0 0 0 0 0 0 0 0 0 0 0 0 0 0 0 0
0 0 0 0 0 0 0 0 0 0 0 0 0 0 0 0 0 0 0 0 0 0 0 0 0 0 0 0 0 0 0 0 0 0 0 0 0 0 0 0 0 0 0 0
0 0 0 0 0 0 0 0 0 0 0 0 0 0 0 0 0 0 0 0 0 0 0 0 0 0 0 0 0 0 0 0 0 0 0 0 0 0 0 0 0 0 0 0
0 0 0 0 0 0 0 0 0 0 0 0 0 0 0 0 0 0 0 0 0 0 0 0 0 0 0 0 0 0 0 0 0 0 0 0 0 0 0 0 0 0 0 0
0 0 0 0 0 0 0 0 0 0 0 0 0 0 0 0 0 0 0 0 0 0 0 0 0 0 0 0 0 0 0 0 0 0 0 0 0 0 0 0 0 0 0 0
0 0 0 0 0 0 0 0 0 0 0 0 0 0 0 0 0 0 0 0 0 0 0 0 0 0 0 0 0 0 0 0 0 0 0 0 0 0 0 0 0 0 0 0
0 0 0 0 0 0 0 0 0 0 0 0 0 0 0 0 0 0 0 0 0 0 0 0 0 0 0 0 0 0 0 0 0 0 0 0 0 0 0 0 0 0 0 0
0 0 0 0 0 0 0 0 0 0 0 0 0 0 0 0 0 0 0 0 0 0 0 0 0 0 0 0 0 0 0 0 0 0 0 0 0 0 0 0 0 0 0 0
0 0 0 0 0 0 0 0 0 0 0 0 0 0 0 0 0 0 0 0 0 0 0 0 0 0 0 0 0 0 0 0 0 0 0 0 0 0 0 0 0 0 0 0
0 0 0 0 0 0 0 0 0 0 0 0 0 0 0 0 0 0 0 0 0 0 0 0 0 0 0 0 0 0 0 0 0 0 0 0 0 0 0 0 0 0 0 0
-0 -0 -0 0 0 0 0 -0 -0 -0 -0 -0 0 0 0 0 0 0 0 0 0 0 0 0 0 0 0 0 0 0 0 0 0 0 0 0 0 0 0 0 0 0 0 0
0 0 0 0 0 0 0 0 -0 -0 -0 -0 -0 -0 0 0 0 0 0 0 0 0 0 0 0 0 0 0 0 0 0 0 0 0 0 0 0 0 0 0 0 0 0 0
0 0 0 0 0 0 0 0 -0 -0 -0 -0 -0 -0 0 0 0 0 0 0 0 0 0 0 0 0 0 0 0 0 0 0 0 0 0 0 0 0 0 0 0 0 0 0
Wind_Speed
8 8 7 9 9 8 10 9 9 10 11 11 7 6 7 6 6 6 5 5 6 5 5 4 3 3 3 3 2 2 2 2 2 2 2 2 2 2 2 2 3 3 3 3
6 7 8 11 11 11 11 11 12 13 15 9 7 5 6 6 5 5 5 6 6 6 5 4 4 4 3 3 3 2 2 2 2 2 1 1 2 2 2 2 2 3 3 3
4 3 5 9 9 11 9 8 8 12 11 6 6 6 6 5 5 5 6 6 6 5 4 4 4 4 3 3 2 2 2 2 1 1 1 1 1 1 1 2 2 2 3 3
3 3 7 6 1 4 7 8 8 8 7 5 5 6 5 4 4 5 5 5 5 4 4 3 3 3 3 3 3 2 2 2 1 1 1 1 1 1 1 1 1 1 2 2
2 4 8 4 2 2 3 6 4 6 7 6 5 5 4 3 3 4 4 5 4 3 3 2 2 3 3 3 3 3 3 3 2 1 1 1 1 2 1 1 1 1 1 1
3 4 6 3 0 0 1 5 2 2 5 4 3 3 5 4 5 5 5 4 3 3 3 3 3 2 2 3 3 3 3 3 3 2 1 1 2 2 1 1 1 1 1 1
6 6 8 2 0 2 2 5 3 2 3 2 2 4 5 5 5 5 4 4 4 3 2 3 3 2 2 3 3 3 3 3 3 2 2 2 1 1 0 0 0 0 0 0
5 6 9 1 3 3 4 2 3 3 2 2 3 4 4 4 4 5 5 4 4 3 3 3 3 3 3 3 3 3 3 3 3 3 2 2 1 1 0 0 0 0 1 0
7 8 3 4 3 2 1 2 3 2 3 2 3 3 4 4 4 4 4 4 4 3 4 3 3 2 2 3 3 3 3 4 3 3 2 2 1 1 0 1 0 0 0 0
5 6 4 3 3 2 2 2 3 3 2 2 3 3 4 4 4 4 4 4 4 3 4 4 3 3 2 2 3 3 3 4 3 3 3 2 2 1 0 1 1 1 0 1
6 5 4 3 3 3 3 3 3 3 3 2 3 3 3 3 4 3 4 3 3 3 4 4 4 3 3 2 2 2 3 3 3 3 2 2 2 1 1 1 2 1 1 1
6 3 2 3 2 2 3 3 3 3 3 3 3 3 3 3 3 3 4 3 3 4 4 4 4 4 3 2 2 2 2 2 2 2 2 2 1 2 3 2 2 2 1 1
3 2 2 3 3 2 2 2 2 3 3 3 3 3 3 3 3 3 3 3 4 4 4 4 4 4 3 3 2 2 2 2 2 2 2 2 2 1 2 3 3 2 1 2
3 2 3 3 3 3 3 3 2 2 2 2 2 2 2 2 3 3 3 3 3 3 3 3 3 4 4 3 3 2 3 3 2 2 2 2 1 1 1 1 2 2 2 2
3 3 3 3 3 3 2 2 2 2 2 2 2 2 2 2 3 3 3 3 3 3 3 3 3 4 3 3 3 3 2 2 2 2 2 1 1 1 1 1 1 1 1 1
3 3 4 4 4 3 2 2 3 3 2 2 2 3 3 3 3 3 3 2 2 3 3 3 3 3 3 3 2 2 2 3 3 2 1 1 1 1 1 1 1 1 1 1
3 3 4 4 4 4 3 3 3 3 3 3 3 3 3 3 3 3 3 2 2 2 3 2 3 2 2 2 2 2 2 2 3 2 1 1 1 1 1 1 1 1 1 1
5 5 4 4 4 4 4 3 3 3 3 3 3 2 2 3 3 4 3 3 3 3 3 2 2 2 2 2 2 1 1 1 1 1 1 1 1 1 1 1 1 1 1 1
4 4 4 3 3 3 3 3 3 3 3 2 2 3 3 3 3 3 3 3 3 4 3 2 2 1 1 2 2 1 1 1 1 1 1 2 2 1 1 1 1 1 1 1
3 2 2 2 2 2 3 2 2 2 2 2 2 3 3 3 3 2 2 3 3 3 2 2 2 1 1 1 2 1 1 1 1 1 1 1 1 1 1 1 1 1 1 1
3 2 2 2 2 2 2 2 2 3 3 2 3 3 4 4 3 2 2 3 3 2 2 3 2 1 1 1 2 1 1 1 1 1 1 1 1 1 1 1 1 1 1 1
2 2 2 2 2 2 2 2 2 2 3 3 3 3 3 3 3 3 3 3 3 3 2 1 1 2 3 2 1 1 1 1 1 1 1 2 2 2 2 2 2 2 1 2
2 2 2 2 2 2 3 2 2 2 3 3 3 3 3 3 2 2 4 2 2 3 2 2 3 4 4 2 1 1 1 2 2 2 2 2 2 2 2 2 2 2 2 2
2 2 2 1 1 1 3 3 3 2 3 3 3 3 3 2 2 2 2 3 4 5 3 3 5 5 4 1 1 1 2 2 2 2 2 2 2 2 2 2 2 2 2 2
2 2 2 2 2 2 3 3 2 2 2 2 3 3 2 2 2 2 2 2 4 4 3 3 5 5 2 1 2 2 2 2 3 2 2 2 2 2 2 2 2 2 2 2
2 2 3 3 3 2 2 2 2 2 2 2 2 2 2 1 2 2 2 2 3 4 3 2 2 3 2 2 2 2 2 3 3 3 3 2 3 3 2 2 3 2 2 2
2 2 2 2 2 2 2 2 3 3 3 3 3 2 2 2 2 2 2 2 2 2 2 2 2 2 2 2 2 2 2 2 2 2 2 2 3 3 3 3 2 2 2 2
Wind_Direction
264 274 264 253 245 229 228 232 241 259 268 278 293 303 304 307 311 318 325 328 323 323 321 317 312 313 316 308 301 287 259 252 257 263 259 228 218 227 228 227 230 226 222 224
270 254 257 262 250 236 235 239 250 267 273 275 291 302 304 301 306 313 322 319 321 319 318 317 324 326 320 311 303 297 270 255 268 275 269 247 238 230 219 226 237 237 227 214
271 291 299 262 233 217 224 226 225 244 256 287 305 298 292 294 300 307 312 311 309 307 306 312 319 320 318 321 334 327 298 281 271 273 266 258 261 238 222 223 226 241 226 204
274 306 250 242 190 204 226 240 234 249 272 289 284 295 295 297 295 299 304 305 301 299 301 314 323 329 331 342 334 328 317 317 326 331 309 300 287 270 257 217 199 231 234 199
239 259 273 260 213 193 217 263 242 253 278 299 313 311 293 327 335 310 305 307 303 309 317 337 340 340 357 357 346 341 337 332 332 335 320 315 300 280 260 204 193 218 236 198
223 239 253 264 343 308 144 271 305 265 277 302 348 306 287 335 342 328 325 322 333 350 357 355 343 358 10 352 343 337 335 328 332 334 316 292 279 288 285 216 199 208 237 211
224 241 262 277 173 106 177 262 330 315 291 290 256 257 294 325 334 335 336 341 350 356 355 341 347 13 8 350 338 334 336 334 335 333 316 298 312 313 328 353 136 177 204 208
199 224 252 162 131 187 231 306 322 314 308 292 288 300 315 325 332 337 341 343 345 343 342 346 354 8 4 345 335 342 340 338 335 332 330 339 356 352 77 109 90 138 130 90
203 219 229 167 197 235 299 295 301 307 311 296 304 309 317 323 328 328 333 335 339 337 335 339 345 358 353 338 342 346 349 345 337 337 341 343 356 356 66 121 144 272 187 214
256 261 260 230 248 277 280 285 305 311 311 312 300 306 314 318 322 328 334 333 336 338 334 331 339 351 344 340 346 349 347 342 339 341 344 347 350 345 295 201 205 225 235 221
254 271 287 255 240 257 275 289 295 307 305 289 285 294 301 308 312 318 324 328 334 331 325 324 335 343 342 342 354 352 342 335 337 338 339 347 353 338 301 251 231 241 226 215
238 244 240 270 287 267 261 269 282 298 303 300 282 285 299 303 310 319 324 331 333 331 330 329 335 339 344 348 355 350 334 333 335 338 334 334 349 354 358 333 320 314 290 275
260 318 288 298 315 322 275 280 283 278 276 288 292 287 295 300 308 319 322 327 327 323 321 324 332 337 343 349 352 343 326 325 328 326 323 324 331 334 340 358 358 346 336 320
272 295 285 288 294 309 305 306 304 298 292 290 295 300 300 302 309 313 311 313 318 320 319 323 329 331 338 346 347 336 326 321 319 314 314 311 314 320 326 329 333 349 355 351
260 248 254 282 293 296 301 305 306 297 306 312 311 304 304 303 299 301 308 317 322 319 323 333 333 329 340 345 341 330 323 316 315 318 319 315 325 329 325 322 323 333 358 15
267 265 257 262 274 285 293 284 278 283 290 288 296 297 295 291 293 299 306 313 315 308 312 318 314 318 337 341 334 326 319 316 321 323 322 325 328 319 312 318 319 319 311 320
238 258 261 266 271 279 274 269 270 279 285 283 283 288 295 299 300 301 308 312 302 294 291 291 297 318 337 331 323 317 319 321 323 327 318 319 321 315 311 311 304 308 305 300
232 242 245 252 259 268 275 277 275 275 275 276 282 285 283 279 280 288 299 308 311 308 298 288 298 324 328 324 320 316 316 317 316 313 315 318 315 303 294 292 288 294 324 335
242 247 253 254 254 255 263 269 273 273 274 273 270 269 271 273 275 285 296 299 296 295 296 300 317 333 311 312 323 318 313 311 316 318 314 312 322 309 295 277 279 286 304 323
249 249 253 263 272 269 273 276 280 284 282 276 273 276 283 285 285 285 288 277 268 267 278 300 309 297 285 286 306 311 301 299 303 311 310 296 293 296 297 293 284 283 288 288
247 251 254 262 277 282 275 270 271 278 284 271 261 264 272 279 277 272 275 284 288 280 284 298 309 295 284 277 292 301 286 285 287 285 281 283 285 288 291 290 285 285 282 280
246 246 252 260 268 284 288 279 270 273 280 279 274 272 274 280 280 278 263 260 271 293 308 290 291 284 285 294 280 264 261 267 274 276 272 271 268 266 270 273 271 273 272 271
248 251 255 260 260 277 297 295 281 269 263 263 265 265 263 267 267 269 284 279 275 295 305 277 280 287 298 302 258 254 255 258 261 264 265 264 262 258 257 260 263 266 267 268
255 261 265 277 285 282 281 281 280 274 264 264 261 255 252 262 274 259 261 285 294 300 297 280 289 294 305 299 251 250 255 258 258 258 260 263 265 264 261 259 261 259 258 261
250 250 252 252 257 257 261 269 278 275 272 271 268 265 255 236 249 278 291 284 284 301 301 292 295 300 301 276 262 258 258 256 259 258 253 256 260 261 259 255 254 256 256 256
245 249 252 246 242 246 252 252 256 256 256 269 279 276 272 270 265 274 281 283 280 293 299 293 288 287 279 270 269 268 264 267 269 263 254 253 254 255 255 253 255 256 253 251
241 244 249 259 257 246 243 248 255 255 248 247 267 270 270 280 283 281 282 284 285 286 287 287 284 277 273 272 271 270 267 260 253 253 252 251 252 252 251 251 254 255 254 251